Location: Asbacherhof
(48.8543°N, 10.7903°E)
Time: 00:02:01
(UTC+00:00)

Cosmos 839 Rocket - Pass Details

Date: 26 May 2022
Orbit: 968 x 2084 km, 65.9° (Epoch: 26 June)

Event Time Altitude Azimuth Distance (km) Brightness Sun altitude
Rises 00:35:23 0° 320° (NW) 3,690 7.4 -17.7°
Reaches altitude 10° 00:37:52 10° 315° (NW) 2,779 6.7 -17.6°
Maximum altitude 00:44:00 51° 241° (WSW) 1,357 4.4 -17.2°
Enters shadow 00:49:11 19° 174° (S) 2,551 5.7 -16.9°
